Location: Boone Canyon
(38.3180°N, 119.2504°W)
Time: 18:11:24
(UTC+00:00)

Cosmos 44 - Pass Details

Date: 18 September 2020
Orbit: 581 x 781 km, 65.1° (Epoch: 19 October)

Event Time Altitude Azimuth Distance (km) Brightness Sun altitude
Exits shadow 12:38:50 18° 277° (W) 1,486 4.4 -13.1°
Maximum altitude 12:40:40 24° 312° (NW) 1,294 4.4 -12.7°
Drops below altitude 10° 12:44:23 10° 6° (N) 2,035 5.9 -12.0°
Sets 12:47:08 0° 20° (NNE) 2,987 7.0 -11.5°
